Time,TemperatureF,DewpointF,PressureIn,WindDirection,WindDirectionDegrees,WindSpeedMPH,WindSpeedGustMPH,Humidity,HourlyPrecipIn,Conditions,Clouds,dailyrainin,SoftwareType,DateUTC
2013-03-01 00:00:00,55.3,27.4,30.27,ENE,68,1.0,4.0,34,0.00,,---,0.00,VWS V14.01,2013-03-01 08:00:00,
2013-03-01 00:15:00,54.7,25.4,30.27,ENE,68,1.0,5.0,32,0.00,,---,0.00,VWS V14.01,2013-03-01 08:15:00,
2013-03-01 00:30:00,54.6,24.6,30.26,NE,45,3.0,6.0,31,0.00,,---,0.00,VWS V14.01,2013-03-01 08:30:00,
2013-03-01 00:45:00,54.9,24.1,30.26,NE,45,2.0,7.0,30,0.00,,---,0.00,VWS V14.01,2013-03-01 08:45:00,
2013-03-01 01:00:00,56.5,22.9,30.26,NE,45,2.0,6.0,27,0.00,,---,0.00,VWS V14.01,2013-03-01 09:00:00,
2013-03-01 01:15:00,57.8,24.9,30.26,NE,45,1.0,4.0,28,0.00,,---,0.00,VWS V14.01,2013-03-01 09:15:00,
2013-03-01 01:30:00,57.7,23.1,30.25,ENE,68,0.0,3.0,26,0.00,,---,0.00,VWS V14.01,2013-03-01 09:30:00,
2013-03-01 01:45:00,58.3,24.5,30.25,ENE,68,0.0,0.0,27,0.00,,---,0.00,VWS V14.01,2013-03-01 09:45:00,
2013-03-01 02:00:00,58.6,23.8,30.25,ENE,68,0.0,4.0,26,0.00,,---,0.00,VWS V14.01,2013-03-01 10:00:00,
2013-03-01 02:15:00,59.0,25.1,30.25,ENE,68,1.0,5.0,27,0.00,,---,0.00,VWS V14.01,2013-03-01 10:15:00,
2013-03-01 02:30:00,57.3,25.3,30.25,ENE,68,2.0,4.0,29,0.00,,---,0.00,VWS V14.01,2013-03-01 10:30:00,
2013-03-01 02:45:00,55.6,24.7,30.24,ENE,68,2.0,5.0,30,0.00,,---,0.00,VWS V14.01,2013-03-01 10:45:00,
2013-03-01 03:00:00,54.8,24.0,30.24,NE,45,2.0,6.0,30,0.00,,---,0.00,VWS V14.01,2013-03-01 11:00:00,
2013-03-01 03:15:00,54.6,24.6,30.24,NE,45,1.0,5.0,31,0.00,,---,0.00,VWS V14.01,2013-03-01 11:15:00,
2013-03-01 03:30:00,54.7,24.7,30.24,NE,45,2.0,6.0,31,0.00,,---,0.00,VWS V14.01,2013-03-01 11:30:00,
2013-03-01 03:45:00,55.0,23.4,30.24,NE,45,2.0,7.0,29,0.00,,---,0.00,VWS V14.01,2013-03-01 11:45:00,
2013-03-01 04:00:00,55.8,23.2,30.24,NE,45,1.0,4.0,28,0.00,,---,0.00,VWS V14.01,2013-03-01 12:00:00,
2013-03-01 04:15:00,56.7,22.2,30.24,NE,45,2.0,6.0,26,0.00,,---,0.00,VWS V14.01,2013-03-01 12:15:00,
2013-03-01 04:30:00,60.5,24.5,30.24,NE,45,1.0,6.0,25,0.00,,---,0.00,VWS V14.01,2013-03-01 12:30:00,
2013-03-01 04:45:00,59.4,23.6,30.24,NNE,22,0.0,4.0,25,0.00,,---,0.00,VWS V14.01,2013-03-01 12:45:00,
2013-03-01 05:00:00,59.0,25.1,30.25,NNE,22,1.0,4.0,27,0.00,,---,0.00,VWS V14.01,2013-03-01 13:00:00,
2013-03-01 05:15:00,59.3,24.4,30.24,South,180,3.0,11.0,26,0.00,,---,0.00,VWS V14.01,2013-03-01 13:15:00,
2013-03-01 05:30:00,61.2,24.1,30.23,NE,45,3.0,11.0,24,0.00,,---,0.00,VWS V14.01,2013-03-01 13:30:00,
2013-03-01 05:45:00,60.2,24.3,30.24,NE,45,2.0,6.0,25,0.00,,---,0.00,VWS V14.01,2013-03-01 13:45:00,
2013-03-01 06:00:00,59.0,24.2,30.24,NE,45,2.0,9.0,26,0.00,,---,0.00,VWS V14.01,2013-03-01 14:00:00,
2013-03-01 06:15:00,59.0,24.2,30.24,NE,45,2.0,7.0,26,0.00,,---,0.00,VWS V14.01,2013-03-01 14:15:00,
2013-03-01 06:30:00,60.5,23.5,30.24,NE,45,2.0,10.0,24,0.00,,---,0.00,VWS V14.01,2013-03-01 14:30:00,
2013-03-01 06:45:00,64.1,23.4,30.23,NE,45,10.0,22.0,21,0.00,,---,0.00,VWS V14.01,2013-03-01 14:45:00,
2013-03-01 07:00:00,65.7,25.8,30.22,NE,45,9.0,21.0,22,0.00,,---,0.00,VWS V14.01,2013-03-01 15:00:00,
2013-03-01 07:15:00,66.2,25.1,30.23,NE,45,11.0,30.0,21,0.00,,---,0.00,VWS V14.01,2013-03-01 15:15:00,
2013-03-01 07:30:00,67.0,24.6,30.23,NE,45,9.0,20.0,20,0.00,,---,0.00,VWS V14.01,2013-03-01 15:30:00,
2013-03-01 07:45:00,69.1,26.4,30.23,NE,45,10.0,25.0,20,0.00,,---,0.00,VWS V14.01,2013-03-01 15:45:00,
2013-03-01 08:00:00,71.1,28.0,30.22,NE,45,10.0,23.0,20,0.00,,---,0.00,VWS V14.01,2013-03-01 16:00:00,
2013-03-01 08:15:00,72.6,28.0,30.22,NE,45,12.0,26.0,19,0.00,,---,0.00,VWS V14.01,2013-03-01 16:15:00,
2013-03-01 08:30:00,73.6,28.8,30.22,NE,45,12.0,26.0,19,0.00,,---,0.00,VWS V14.01,2013-03-01 16:30:00,
2013-03-01 08:45:00,74.3,28.1,30.22,NE,45,17.0,32.0,18,0.00,,---,0.00,VWS V14.01,2013-03-01 16:45:00,
2013-03-01 09:00:00,74.8,28.5,30.22,ENE,68,16.0,30.0,18,0.00,,---,0.00,VWS V14.01,2013-03-01 17:00:00,
2013-03-01 09:15:00,75.7,27.8,30.23,ENE,68,14.0,29.0,17,0.00,,---,0.00,VWS V14.01,2013-03-01 17:15:00,
2013-03-01 09:30:00,76.7,28.6,30.23,ENE,68,9.0,26.0,17,0.00,,---,0.00,VWS V14.01,2013-03-01 17:30:00,
2013-03-01 09:45:00,78.3,31.4,30.22,NE,45,9.0,24.0,18,0.00,,---,0.00,VWS V14.01,2013-03-01 17:45:00,
2013-03-01 10:00:00,78.5,31.5,30.22,NE,45,13.0,22.0,18,0.00,,---,0.00,VWS V14.01,2013-03-01 18:00:00,
2013-03-01 10:15:00,79.9,31.2,30.22,NE,45,10.0,21.0,17,0.00,,---,0.00,VWS V14.01,2013-03-01 18:15:00,
2013-03-01 10:30:00,80.8,32.0,30.21,NE,45,10.0,21.0,17,0.00,,---,0.00,VWS V14.01,2013-03-01 18:30:00,
2013-03-01 10:45:00,81.8,32.8,30.21,NE,45,10.0,21.0,17,0.00,,---,0.00,VWS V14.01,2013-03-01 18:45:00,
2013-03-01 11:00:00,82.4,33.2,30.20,NE,45,11.0,22.0,17,0.00,,---,0.00,VWS V14.01,2013-03-01 19:00:00,
2013-03-01 11:15:00,83.4,32.5,30.19,NE,45,10.0,21.0,16,0.00,,---,0.00,VWS V14.01,2013-03-01 19:15:00,
2013-03-01 11:30:00,84.3,33.3,30.19,NE,45,9.0,18.0,16,0.00,,---,0.00,VWS V14.01,2013-03-01 19:30:00,
2013-03-01 11:45:00,85.1,33.9,30.19,NE,45,8.0,18.0,16,0.00,,---,0.00,VWS V14.01,2013-03-01 19:45:00,
2013-03-01 12:00:00,86.3,33.3,30.18,ENE,68,5.0,13.0,15,0.00,,---,0.00,VWS V14.01,2013-03-01 20:00:00,
2013-03-01 12:15:00,87.7,34.4,30.17,NE,45,4.0,11.0,15,0.00,,---,0.00,VWS V14.01,2013-03-01 20:15:00,
2013-03-01 12:30:00,87.8,32.7,30.16,NE,45,3.0,11.0,14,0.00,,---,0.00,VWS V14.01,2013-03-01 20:30:00,
2013-03-01 12:45:00,87.9,36.2,30.16,East,90,1.0,7.0,16,0.00,,---,0.00,VWS V14.01,2013-03-01 20:45:00,
2013-03-01 13:00:00,87.4,34.1,30.15,SSE,158,2.0,11.0,15,0.00,,---,0.00,VWS V14.01,2013-03-01 21:00:00,
2013-03-01 13:15:00,86.5,40.7,30.14,SW,225,3.0,9.0,20,0.00,,---,0.00,VWS V14.01,2013-03-01 21:15:00,
2013-03-01 13:30:00,86.0,34.6,30.13,SW,225,2.0,6.0,16,0.00,,---,0.00,VWS V14.01,2013-03-01 21:30:00,
2013-03-01 13:45:00,87.0,38.4,30.13,WSW,248,1.0,6.0,18,0.00,,---,0.00,VWS V14.01,2013-03-01 21:45:00,
2013-03-01 14:00:00,83.9,37.3,30.13,West,270,4.0,10.0,19,0.00,,---,0.00,VWS V14.01,2013-03-01 22:00:00,
2013-03-01 14:15:00,83.2,38.0,30.13,WSW,248,4.0,10.0,20,0.00,,---,0.00,VWS V14.01,2013-03-01 22:15:00,
2013-03-01 14:30:00,82.9,37.8,30.13,WSW,248,3.0,10.0,20,0.00,,---,0.00,VWS V14.01,2013-03-01 22:30:00,
2013-03-01 14:45:00,82.6,36.2,30.13,West,270,3.0,9.0,19,0.00,,---,0.00,VWS V14.01,2013-03-01 22:45:00,
2013-03-01 15:00:00,82.2,37.2,30.13,West,270,4.0,12.0,20,0.00,,---,0.00,VWS V14.01,2013-03-01 23:00:00,
2013-03-01 15:15:00,81.5,37.8,30.13,West,270,4.0,9.0,21,0.00,,---,0.00,VWS V14.01,2013-03-01 23:15:00,
2013-03-01 15:30:00,81.5,36.6,30.13,West,270,4.0,11.0,20,0.00,,---,0.00,VWS V14.01,2013-03-01 23:30:00,
2013-03-01 15:45:00,80.3,34.3,30.13,SW,225,4.0,10.0,19,0.00,,---,0.00,VWS V14.01,2013-03-01 23:45:00,
2013-03-01 16:10:00,80.3,34.3,30.13,SW,225,4.0,10.0,19,0.00,,---,0.00,VWS V14.01,2013-03-02 00:10:00,
2013-03-01 16:15:00,79.1,34.6,30.13,WSW,242,2.0,6.0,20,0.00,,---,0.00,VWS V14.01,2013-03-02 00:15:00,
2013-03-01 16:20:00,78.7,37.8,30.13,West,270,3.0,9.0,23,0.00,,---,0.00,VWS V14.01,2013-03-02 00:20:00,
2013-03-01 16:25:00,78.7,34.3,30.13,WNW,298,2.0,9.0,20,0.00,,---,0.00,VWS V14.01,2013-03-02 00:25:00,
2013-03-01 16:30:00,78.7,35.5,30.13,NW,315,0.0,9.0,21,0.00,,---,0.00,VWS V14.01,2013-03-02 00:30:00,
2013-03-01 16:35:00,78.5,34.1,30.13,NW,319,0.0,4.0,20,0.00,,---,0.00,VWS V14.01,2013-03-02 00:35:00,
2013-03-01 16:40:00,78.3,34.0,30.13,WNW,296,1.0,4.0,20,0.00,,---,0.00,VWS V14.01,2013-03-02 00:40:00,
2013-03-01 16:45:00,78.0,32.4,30.13,WNW,300,0.0,4.0,19,0.00,,---,0.00,VWS V14.01,2013-03-02 00:45:00,
2013-03-01 16:50:00,77.7,34.7,30.13,NW,316,0.0,4.0,21,0.00,,---,0.00,VWS V14.01,2013-03-02 00:50:00,
2013-03-01 16:55:00,77.3,31.9,30.13,NNW,332,1.0,5.0,19,0.00,,---,0.00,VWS V14.01,2013-03-02 00:55:00,
2013-03-01 17:00:00,77.0,31.6,30.13,NW,321,0.0,5.0,19,0.00,,---,0.00,VWS V14.01,2013-03-02 01:00:00,
2013-03-01 17:05:00,76.8,31.5,30.13,NW,321,0.0,2.0,19,0.00,,---,0.00,VWS V14.01,2013-03-02 01:05:00,
2013-03-01 17:10:00,76.6,31.3,30.13,NW,321,0.0,2.0,19,0.00,,---,0.00,VWS V14.01,2013-03-02 01:10:00,
2013-03-01 17:15:00,76.4,32.4,30.14,NW,325,0.0,2.0,20,0.00,,---,0.00,VWS V14.01,2013-03-02 01:15:00,
2013-03-01 17:20:00,76.0,32.1,30.14,NW,325,0.0,1.0,20,0.00,,---,0.00,VWS V14.01,2013-03-02 01:20:00,
2013-03-01 17:25:00,75.8,31.9,30.14,NW,325,0.0,1.0,20,0.00,,---,0.00,VWS V14.01,2013-03-02 01:25:00,
2013-03-01 17:30:00,75.5,31.7,30.14,NW,325,0.0,3.0,20,0.00,,---,0.00,VWS V14.01,2013-03-02 01:30:00,
2013-03-01 17:35:00,75.1,32.5,30.14,NNW,345,0.0,3.0,21,0.00,,---,0.00,VWS V14.01,2013-03-02 01:35:00,
2013-03-01 17:40:00,74.7,33.4,30.14,NNW,344,0.0,3.0,22,0.00,,---,0.00,VWS V14.01,2013-03-02 01:40:00,
2013-03-01 17:45:00,74.2,33.0,30.14,NNW,344,0.0,3.0,22,0.00,,---,0.00,VWS V14.01,2013-03-02 01:45:00,
2013-03-01 17:50:00,73.8,32.6,30.15,NNW,344,0.0,0.0,22,0.00,,---,0.00,VWS V14.01,2013-03-02 01:50:00,
2013-03-01 17:55:00,73.3,32.2,30.15,NNE,15,0.0,4.0,22,0.00,,---,0.00,VWS V14.01,2013-03-02 01:55:00,
2013-03-01 18:00:00,72.9,33.0,30.15,NE,41,3.0,5.0,23,0.00,,---,0.00,VWS V14.01,2013-03-02 02:00:00,
2013-03-01 18:05:00,72.3,33.5,30.14,NE,46,3.0,5.0,24,0.00,,---,0.00,VWS V14.01,2013-03-02 02:05:00,
2013-03-01 18:10:00,71.8,34.1,30.15,NE,49,3.0,6.0,25,0.00,,---,0.00,VWS V14.01,2013-03-02 02:10:00,
2013-03-01 18:15:00,71.2,34.6,30.15,NE,53,4.0,6.0,26,0.00,,---,0.00,VWS V14.01,2013-03-02 02:15:00,
2013-03-01 18:20:00,70.6,34.1,30.15,NE,55,6.0,7.0,26,0.00,,---,0.00,VWS V14.01,2013-03-02 02:20:00,
2013-03-01 18:25:00,70.1,34.6,30.15,NE,44,3.0,7.0,27,0.00,,---,0.00,VWS V14.01,2013-03-02 02:25:00,
2013-03-01 18:30:00,69.5,34.1,30.15,NE,50,5.0,7.0,27,0.00,,---,0.00,VWS V14.01,2013-03-02 02:30:00,
2013-03-01 18:35:00,69.0,34.6,30.16,NE,48,5.0,6.0,28,0.00,,---,0.00,VWS V14.01,2013-03-02 02:35:00,
2013-03-01 18:40:00,68.5,34.1,30.16,NE,45,4.0,6.0,28,0.00,,---,0.00,VWS V14.01,2013-03-02 02:40:00,
2013-03-01 18:45:00,68.1,34.7,30.16,NE,42,3.0,6.0,29,0.00,,---,0.00,VWS V14.01,2013-03-02 02:45:00,
2013-03-01 18:50:00,67.7,34.3,30.16,NE,42,5.0,6.0,29,0.00,,---,0.00,VWS V14.01,2013-03-02 02:50:00,
2013-03-01 18:55:00,67.2,33.0,30.16,NE,48,4.0,6.0,28,0.00,,---,0.00,VWS V14.01,2013-03-02 02:55:00,
2013-03-01 19:00:00,67.0,32.8,30.17,NE,49,0.0,6.0,28,0.00,,---,0.00,VWS V14.01,2013-03-02 03:00:00,
2013-03-01 19:05:00,66.7,32.6,30.16,NE,50,6.0,6.0,28,0.00,,---,0.00,VWS V14.01,2013-03-02 03:05:00,
2013-03-01 19:10:00,66.5,32.4,30.16,NE,49,4.0,6.0,28,0.00,,---,0.00,VWS V14.01,2013-03-02 03:10:00,
2013-03-01 19:15:00,66.4,32.3,30.16,NE,44,3.0,5.0,28,0.00,,---,0.00,VWS V14.01,2013-03-02 03:15:00,
2013-03-01 19:20:00,66.2,33.0,30.16,NE,55,3.0,6.0,29,0.00,,---,0.00,VWS V14.01,2013-03-02 03:20:00,
2013-03-01 19:25:00,66.0,32.0,30.16,NE,48,4.0,6.0,28,0.00,,---,0.00,VWS V14.01,2013-03-02 03:25:00,
2013-03-01 19:30:00,65.9,31.9,30.16,NE,47,0.0,0.0,28,0.00,,---,0.00,VWS V14.01,2013-03-02 03:30:00,
2013-03-01 19:35:00,65.7,32.6,30.17,NE,47,0.0,3.0,29,0.00,,---,0.00,VWS V14.01,2013-03-02 03:35:00,
2013-03-01 19:40:00,65.4,32.3,30.17,NE,47,1.0,3.0,29,0.00,,---,0.00,VWS V14.01,2013-03-02 03:40:00,
2013-03-01 19:46:00,65.0,32.8,30.17,NE,47,0.0,0.0,30,0.00,,---,0.00,VWS V14.01,2013-03-02 03:46:00,
2013-03-01 19:50:00,64.7,32.6,30.17,NE,48,3.0,3.0,30,0.00,,---,0.00,VWS V14.01,2013-03-02 03:50:00,
2013-03-01 19:55:00,64.3,32.2,30.17,NE,46,1.0,3.0,30,0.00,,---,0.00,VWS V14.01,2013-03-02 03:55:00,
2013-03-01 20:01:00,64.1,32.1,30.17,NE,47,2.0,3.0,30,0.00,,---,0.00,VWS V14.01,2013-03-02 04:01:00,
2013-03-01 20:06:00,64.0,31.1,30.17,NE,47,2.0,4.0,29,0.00,,---,0.00,VWS V14.01,2013-03-02 04:06:00,
2013-03-01 20:11:00,64.0,31.1,30.17,NE,47,4.0,4.0,29,0.00,,---,0.00,VWS V14.01,2013-03-02 04:11:00,
2013-03-01 20:16:00,64.1,31.2,30.17,NE,46,1.0,3.0,29,0.00,,---,0.00,VWS V14.01,2013-03-02 04:16:00,
2013-03-01 20:21:00,64.1,31.2,30.17,NE,52,3.0,5.0,29,0.00,,---,0.00,VWS V14.01,2013-03-02 04:21:00,
2013-03-01 20:26:00,64.3,30.5,30.17,NE,53,3.0,5.0,28,0.00,,---,0.00,VWS V14.01,2013-03-02 04:26:00,
2013-03-01 20:31:00,64.2,30.4,30.17,NE,52,2.0,2.0,28,0.00,,---,0.00,VWS V14.01,2013-03-02 04:31:00,
2013-03-01 20:36:00,64.2,30.4,30.17,NE,53,1.0,4.0,28,0.00,,---,0.00,VWS V14.01,2013-03-02 04:36:00,
2013-03-01 20:41:00,64.3,30.5,30.17,NE,52,0.0,5.0,28,0.00,,---,0.00,VWS V14.01,2013-03-02 04:41:00,
2013-03-01 20:46:00,64.3,30.5,30.17,NE,52,0.0,0.0,28,0.00,,---,0.00,VWS V14.01,2013-03-02 04:46:00,
2013-03-01 20:51:00,64.1,30.4,30.17,NE,52,0.0,5.0,28,0.00,,---,0.00,VWS V14.01,2013-03-02 04:51:00,
2013-03-01 20:56:00,64.0,30.3,30.17,NE,53,3.0,5.0,28,0.00,,---,0.00,VWS V14.01,2013-03-02 04:56:00,
2013-03-01 21:00:00,63.8,30.1,30.17,NE,52,2.0,5.0,28,0.00,,---,0.00,VWS V14.01,2013-03-02 05:00:00,
2013-03-01 21:01:00,63.7,30.0,30.17,NE,53,5.0,6.0,28,0.00,,---,0.00,VWS V14.01,2013-03-02 05:01:00,
2013-03-01 21:06:00,63.6,29.9,30.17,NE,51,3.0,9.0,28,0.00,,---,0.00,VWS V14.01,2013-03-02 05:06:00,
2013-03-01 21:11:00,63.9,30.2,30.17,NE,56,2.0,9.0,28,0.00,,---,0.00,VWS V14.01,2013-03-02 05:11:00,
2013-03-01 21:16:00,64.1,30.4,30.17,NE,46,3.0,4.0,28,0.00,,---,0.00,VWS V14.01,2013-03-02 05:16:00,
2013-03-01 21:21:00,64.2,29.5,30.17,NE,46,4.0,5.0,27,0.00,,---,0.00,VWS V14.01,2013-03-02 05:21:00,
2013-03-01 21:26:00,64.2,30.4,30.17,NE,56,1.0,6.0,28,0.00,,---,0.00,VWS V14.01,2013-03-02 05:26:00,
2013-03-01 21:31:00,64.2,29.5,30.17,ENE,57,1.0,3.0,27,0.00,,---,0.00,VWS V14.01,2013-03-02 05:31:00,
2013-03-01 21:36:00,64.2,29.5,30.18,ENE,57,1.0,4.0,27,0.00,,---,0.00,VWS V14.01,2013-03-02 05:36:00,
2013-03-01 21:41:00,64.1,29.5,30.18,ENE,57,3.0,4.0,27,0.00,,---,0.00,VWS V14.01,2013-03-02 05:41:00,
2013-03-01 21:46:00,63.9,30.2,30.17,NE,54,1.0,6.0,28,0.00,,---,0.00,VWS V14.01,2013-03-02 05:46:00,
2013-03-01 21:51:00,63.8,29.2,30.17,NE,51,2.0,6.0,27,0.00,,---,0.00,VWS V14.01,2013-03-02 05:51:00,
2013-03-01 21:56:00,63.8,29.2,30.17,NE,51,3.0,6.0,27,0.00,,---,0.00,VWS V14.01,2013-03-02 05:56:00,
2013-03-01 22:01:00,63.8,29.2,30.17,NE,49,1.0,4.0,27,0.00,,---,0.00,VWS V14.01,2013-03-02 06:01:00,
2013-03-01 22:06:00,63.9,29.3,30.17,NE,49,2.0,6.0,27,0.00,,---,0.00,VWS V14.01,2013-03-02 06:06:00,
2013-03-01 22:11:00,63.8,29.2,30.17,NE,48,5.0,6.0,27,0.00,,---,0.00,VWS V14.01,2013-03-02 06:11:00,
2013-03-01 22:16:00,63.7,30.0,30.17,NE,49,1.0,5.0,28,0.00,,---,0.00,VWS V14.01,2013-03-02 06:16:00,
2013-03-01 22:21:00,63.5,29.8,30.17,NE,49,0.0,5.0,28,0.00,,---,0.00,VWS V14.01,2013-03-02 06:21:00,
2013-03-01 22:26:00,63.2,29.6,30.17,NE,49,0.0,5.0,28,0.00,,---,0.00,VWS V14.01,2013-03-02 06:26:00,
2013-03-01 22:31:00,63.0,30.3,30.17,NE,50,2.0,3.0,29,0.00,,---,0.00,VWS V14.01,2013-03-02 06:31:00,
2013-03-01 22:36:00,62.7,30.0,30.17,NE,49,1.0,4.0,29,0.00,,---,0.00,VWS V14.01,2013-03-02 06:36:00,
2013-03-01 22:41:00,62.5,29.8,30.18,NE,49,2.0,4.0,29,0.00,,---,0.00,VWS V14.01,2013-03-02 06:41:00,
2013-03-01 22:46:00,62.3,29.7,30.18,NE,49,3.0,3.0,29,0.00,,---,0.00,VWS V14.01,2013-03-02 06:46:00,
2013-03-01 22:51:00,62.2,29.6,30.18,NE,44,2.0,5.0,29,0.00,,---,0.00,VWS V14.01,2013-03-02 06:51:00,
2013-03-01 22:56:00,62.0,29.4,30.18,NE,44,2.0,5.0,29,0.00,,---,0.00,VWS V14.01,2013-03-02 06:56:00,
2013-03-01 23:01:00,62.0,29.4,30.17,NE,42,3.0,6.0,29,0.00,,---,0.00,VWS V14.01,2013-03-02 07:01:00,
2013-03-01 23:06:00,61.9,29.3,30.17,NE,44,4.0,7.0,29,0.00,,---,0.00,VWS V14.01,2013-03-02 07:06:00,
2013-03-01 23:11:00,61.9,29.3,30.17,NE,49,3.0,7.0,29,0.00,,---,0.00,VWS V14.01,2013-03-02 07:11:00,
2013-03-01 23:16:00,61.9,29.3,30.17,NE,49,2.0,4.0,29,0.00,,---,0.00,VWS V14.01,2013-03-02 07:16:00,
2013-03-01 23:21:00,62.0,29.4,30.17,NE,47,3.0,5.0,29,0.00,,---,0.00,VWS V14.01,2013-03-02 07:21:00,
2013-03-01 23:26:00,62.0,29.4,30.17,NE,48,2.0,6.0,29,0.00,,---,0.00,VWS V14.01,2013-03-02 07:26:00,
2013-03-01 23:31:00,62.0,29.4,30.17,NE,49,2.0,6.0,29,0.00,,---,0.00,VWS V14.01,2013-03-02 07:31:00,
2013-03-01 23:36:00,62.0,29.4,30.17,NE,52,6.0,7.0,29,0.00,,---,0.00,VWS V14.01,2013-03-02 07:36:00,
2013-03-01 23:41:00,62.1,29.5,30.17,NE,53,9.0,10.0,29,0.00,,---,0.00,VWS V14.01,2013-03-02 07:41:00,
2013-03-01 23:46:00,62.2,29.6,30.17,NE,55,9.0,10.0,29,0.00,,---,0.00,VWS V14.01,2013-03-02 07:46:00,
2013-03-01 23:51:00,62.2,29.6,30.17,NE,51,4.0,10.0,29,0.00,,---,0.00,VWS V14.01,2013-03-02 07:51:00,
2013-03-01 23:56:00,62.4,29.8,30.17,NE,52,7.0,10.0,29,0.00,,---,0.00,VWS V14.01,2013-03-02 07:56:00,